Location: Unspecified
(57.6483°N, 3.3184°W)
Time: 10:49:56
(UTC+00:00)

BlueWalker 3 - Pass Details

Date: 25 January 2026
Orbit: 450 x 461 km, 53.2° (Epoch: 11 February)

Event Time Altitude Azimuth Distance (km) Brightness Sun altitude
Rises 18:12:15 0° 216° (SW) 2,451 6.2 -14.1°
Reaches altitude 10° 18:14:46 10° 198° (SSW) 1,581 4.9 -14.4°
Maximum altitude 18:17:23 19° 151° (SSE) 1,124 3.5 -14.7°
Enters shadow 18:18:21 18° 129° (SE) 1,198 3.5 -14.9°
